Frankfort, KY

10:33 AM EST on February 19, 2017 (GMT -0500)
Capital City

Weather History for KFFT - November, 2013

Change the Weather History Date:

Wednesday, November 13, 2013

  Actual Average Record
Temperature  
Mean Temperature 29 °F 47 °F  
Max Temperature 41 °F 58 °F 76 °F (1949)
Min Temperature 17 °F 37 °F 16 °F (1976)
Degree Days  
Heating Degree Days 36 18  
Month to date heating degree days 250 204  
Since 1 July heating degree days 589 545  
Cooling Degree Days 0 0  
Month to date cooling degree days 0 0  
Year to date cooling degree days 1127 1154  
Moisture  
Dew Point 19 °F    
Average Humidity 66    
Maximum Humidity 92    
Minimum Humidity 40    
Precipitation  
Precipitation 0.00 in 0.11 in 1.38 in (1935)
Month to date precipitation 0.51 1.49  
Year to date precipitation 43.06 39.37  
Sea Level Pressure  
Sea Level Pressure 30.59 in    
Wind  
Wind Speed 3 mph (SSW)    
Max Wind Speed 12 mph    
Max Gust Speed 20 mph    
Visibility 10 miles    
Events      
T = Trace of Precipitation, MM = Missing Value Source: NWS Daily Summary

Daily Weather History Graph

Daily Weather History Graph

Search for Another Location

Airport or City:

Trip Planner

Search our weather history database for the weather conditions in past years. The results will help you decide how hot, cold, wet, or windy it might be!

Date:

Astronomy

Nov. 13, 2013 Rise Set
Actual Time 7:18 AM EST 5:28 PM EST
Civil Twilight 6:50 AM EST 5:56 PM EST
Nautical Twilight 6:18 AM EST 6:28 PM EST
Astronomical Twilight 5:47 AM EST 6:59 PM EST
Moon 3:12 PM EST (11/13) 3:14 AM EST (11/13)
Length of Visible Light 11h 06m
Length of Day
10h 09m
Waxing Gibbous, 84% of the Moon is Illuminated
Nov 13
Waxing Gibbous
Nov 17
Full
Nov 25
Last Quarter
Dec 2
New
Dec 9
First Quarter

Hourly Weather History & Observations

Time (EST) Temp. Windchill Dew Point Humidity Pressure Visibility Wind Dir Wind Speed Gust Speed Precip Events Conditions
12:53 AM 21.0 °F - 18.0 °F 88% 30.64 in 10.0 mi Calm Calm - N/A   Clear
1:53 AM 21.0 °F - 18.0 °F 88% 30.63 in 10.0 mi Calm Calm - N/A   Clear
2:53 AM 19.9 °F - 18.0 °F 92% 30.63 in 10.0 mi Calm Calm - N/A   Clear
3:53 AM 18.0 °F - 16.0 °F 92% 30.64 in 10.0 mi Calm Calm - N/A   Clear
4:53 AM 19.0 °F 13.9 °F 16.0 °F 88% 30.65 in 10.0 mi NNW 3.5 mph - N/A   Clear
5:53 AM 19.0 °F - 16.0 °F 88% 30.66 in 10.0 mi Calm Calm - N/A   Clear
6:53 AM 18.0 °F - 16.0 °F 92% 30.67 in 10.0 mi Calm Calm - N/A   Clear
7:53 AM 19.0 °F - 17.1 °F 92% 30.68 in 10.0 mi Calm Calm - N/A   Clear
8:53 AM 25.0 °F - 21.9 °F 88% 30.69 in 10.0 mi Calm Calm - N/A   Clear
9:53 AM 28.9 °F - 24.1 °F 82% 30.69 in 10.0 mi Calm Calm - N/A   Clear
10:53 AM 33.1 °F 27.7 °F 24.1 °F 70% 30.68 in 10.0 mi SW 5.8 mph - N/A   Unknown
11:53 AM 36.0 °F 29.6 °F 19.9 °F 52% 30.66 in 10.0 mi SW 8.1 mph - N/A   Clear
12:53 PM 37.9 °F 33.5 °F 19.0 °F 47% 30.62 in 10.0 mi SSW 5.8 mph - N/A   Clear
1:53 PM 37.9 °F - 16.0 °F 41% 30.59 in 10.0 mi Calm Calm - N/A   Clear
2:53 PM 39.9 °F 35.1 °F 17.1 °F 40% 30.57 in 10.0 mi Variable 6.9 mph - N/A   Clear
3:53 PM 39.9 °F 36.7 °F 17.1 °F 40% 30.56 in 10.0 mi SW 4.6 mph - N/A   Clear
4:53 PM 37.9 °F 32.1 °F 18.0 °F 45% 30.53 in 10.0 mi SSW 8.1 mph - N/A   Clear
5:53 PM 33.1 °F - 19.0 °F 56% 30.52 in 10.0 mi Calm Calm - N/A   Clear
6:53 PM 32.0 °F 26.4 °F 19.0 °F 59% 30.51 in 10.0 mi South 5.8 mph - N/A   Clear
7:53 PM 28.9 °F 23.9 °F 19.9 °F 69% 30.51 in 10.0 mi SSW 4.6 mph - N/A   Clear
8:53 PM 27.0 °F 23.0 °F 21.0 °F 78% 30.49 in 10.0 mi South 3.5 mph - N/A   Clear
9:53 PM 28.9 °F 23.9 °F 19.0 °F 67% 30.48 in 10.0 mi SSW 4.6 mph - N/A   Clear
10:53 PM 27.0 °F 21.6 °F 19.0 °F 72% 30.45 in 10.0 mi SSW 4.6 mph - N/A   Clear
11:53 PM 27.0 °F 23.0 °F 19.0 °F 72% 30.45 in 10.0 mi SSW 3.5 mph - N/A   Clear